Flag for U.S.A. Weather past 2 weeks in Pasadena, California, U.S.A.

Now
63 °F

Clear.


Feels Like: 63 °F
Forecast: 54 / 78 °F
Wind: No wind

Location: Burbank-Glendale-Pasadena Airport

Current Time: Apr 18, 2015 at 12:40:48 AM

Latest Report: Apr 17, 2015 at 11:53 PM


Visibility: 10 mi

Pressure: 29.98 "Hg

Humidity: 23%

Dew point: 24 °F

Location of PasadenaLocation

Historic Weather in Pasadena — Graph

°F

Pasadena temperature yesterday

Maximum temperature yesterday: 83 °F (at 1:53 PM)
Minimum temperature yesterday: 54 °F (at 4:53 AM)
Average temperature yesterday: 69 °F

Past Weeks' High & Low Weather Summary

 TemperatureHumidityPressure
High83 °F (Apr 3, 3:53 PM)90% (Apr 7, 8:53 PM)30.08 "Hg (Apr 7, 8:53 PM)
Low45 °F (Apr 8, 5:53 AM)7% (Apr 16, 10:53 AM)29.79 "Hg (Apr 5, 4:53 PM)
Average63 °F44%29.94 "Hg
* Reported Apr 2 10:53 PM — Apr 17 10:53 PM, Pasadena, Weather by CustomWeather, © 2015

Note: Actual official high and low records may vary slightly from our data, if they occured in-between our weather recording intervals... More about our weather records

Advertising

Pasadena weather history for previous 24 hours

 ConditionsComfort  
Time TempWeatherWind HumidityBarometerVisibility
10:53 PM
Fri, Apr 17
65 °FClear.No wind19%29.98 "Hg10 mi
9:53 PM69 °FClear.No wind15%29.98 "Hg10 mi
8:53 PM71 °FClear.5 mph14%29.98 "Hg10 mi
7:53 PM73 °FSunny.12 mph12%29.96 "Hg10 mi
6:53 PM77 °FSunny.6 mph10%29.93 "Hg10 mi
5:53 PM80 °FSunny.12 mph10%29.92 "Hg10 mi
4:53 PM83 °FSunny.15 mph10%29.91 "Hg10 mi
3:53 PM83 °FSunny.9 mph13%29.91 "Hg10 mi
2:53 PM83 °FSunny.13 mph15%29.93 "Hg10 mi
1:53 PM83 °FSunny.12 mph12%29.95 "Hg10 mi
12:53 PM81 °FSunny.8 mph15%29.97 "Hg10 mi
11:53 AM79 °FSunny.3 mph13%29.99 "Hg10 mi
10:53 AM74 °FSunny.No wind15%30.01 "Hg10 mi
9:53 AM70 °FSunny.No wind16%30.01 "Hg10 mi
8:53 AM65 °FSunny.3 mph21%30.02 "Hg10 mi
7:53 AM59 °FSunny.No wind26%30.02 "Hg10 mi
6:53 AM54 °FClear.No wind31%30.01 "Hg10 mi
5:53 AM55 °FClear.No wind28%30.00 "Hg10 mi
4:53 AM54 °FClear.No wind30%29.99 "Hg10 mi
3:53 AM55 °FClear.5 mph31%30.00 "Hg10 mi
2:53 AM59 °FClear.No wind26%30.01 "Hg10 mi
1:53 AM61 °FClear.No wind24%30.01 "Hg10 mi
12:53 AM62 °FClear.6 mph20%30.01 "Hg10 mi
Weather by CustomWeather, © 2015

See weather overviewHow to use our weather pages